Content
SEND FEEDBACK

Daily
Averages
Monthly
Summary
United States of America

HAZELWOOD, MISSOURI


Home > North America > United States > Missouri
Elevation: 570 feet     Latitude: 38 45N     Longitude: 090 22W

WEATHER
 
SELECT A DAY
Number of Records: 196,318;   Date Range: 1/1/95 - 7/23/14
 
SHARE

PRINT THIS DATA

[ ← Previous Day ]
WEATHER ALMANAC - APRIL 24, 2013
[ Next Day → ]
[ °C ]   °F
Weather ElementAverageHighLow
Temperature43 °F54 °F (4:54 pm)37.4 °F (9:33 am)
Dewpoint32.9 °F36 °F (12:54 am)25 °F (3:54 pm)
Humidity70.9 %89 % (11:54 pm)34 % (3:54 pm)
Barometer30.14 in30.27 in (10:54 pm)30.01 in (12:40 am)
Wind Speed8.9 mph17.3 mph (6:54 am)
Wind Gust24.2 mph (8:54 am)
Weather ElementAverage
Visibility9.7 mi
Wind DirectionW (268.5 °)

Weather ElementTotal
Precipitation0.02 in
Heating Degree Days19.3 (Base 65)
Averaged from 33 records on April 24, 2013
WEATHER CONDITIONS BREAKOUT
WIND DIRECTION BREAKOUT
WEATHER BY HOUR - APRIL 24, 2013
[ °C ]   °F
Local TimeTemperatureDewpointHumidityBarometerVisibilityWind DirectionWind SpeedGust SpeedPrecipitationEventsConditions
12:40 AM39.2 °F35.6 °F87 %30.01 in10.0 miNorth (350°)10.4 mph0.00 inOvercast
12:54 AM39.9 °F36.0 °F86 %30.05 in10.0 miNW (310°)8.1 mph0.00 inOvercast
1:47 AM39.2 °F35.6 °F87 %30.03 in10.0 miNW (320°)6.9 mphOvercast
1:54 AM39.9 °F36.0 °F86 %30.04 in10.0 miNNW (330°)9.2 mphOvercast
2:42 AM39.2 °F35.6 °F87 %30.04 in10.0 miWNW (300°)9.2 mphOvercast
2:54 AM39.9 °F36.0 °F86 %30.05 in10.0 miWNW (300°)8.1 mphOvercast
3:06 AM39.2 °F35.6 °F87 %30.04 in10.0 miNW (310°)6.9 mphOvercast
3:39 AM39.2 °F35.6 °F87 %30.05 in9.0 miNW (310°)6.9 mphOvercast
3:54 AM39.9 °F36.0 °F86 %30.06 in9.0 miNW (310°)8.1 mphOvercast
4:14 AM39.2 °F35.6 °F87 %30.06 in9.0 miWNW (300°)8.1 mphOvercast
4:54 AM39.9 °F35.1 °F83 %30.08 in10.0 miNW (320°)11.5 mphOvercast
5:54 AM39.9 °F35.1 °F83 %30.07 in10.0 miNW (320°)9.2 mphOvercast
6:24 AM39.2 °F35.6 °F87 %30.08 in10.0 miWNW (300°)16.1 mphOvercast
6:54 AM37.9 °F34.0 °F86 %30.12 in4.0 miNW (310°)17.3 mph0.01 inRainLight Rain
7:54 AM37.9 °F34.0 °F86 %30.16 in10.0 miWNW (290°)10.4 mph0.00 inRainLight Rain
8:54 AM37.9 °F34.0 °F86 %30.19 in10.0 miWNW (290°)12.7 mph24.2 mph0.01 inOvercast
9:33 AM37.4 °F33.8 °F87 %30.19 in10.0 miWNW (290°)13.8 mph21.9 mphOvercast
9:54 AM39.0 °F33.1 °F79 %30.20 in10.0 miNW (310°)11.5 mphOvercast
10:54 AM43.0 °F33.1 °F68 %30.19 in10.0 miNW (310°)13.8 mph21.9 mphMostly Cloudy
11:54 AM46.0 °F30.9 °F56 %30.19 in10.0 miNNW (330°)15.0 mph20.7 mphMostly Cloudy
12:49 PM48.2 °F30.2 °F50 %30.19 in10.0 miWNW (300°)12.7 mph20.7 mphPartly Cloudy
12:54 PM48.0 °F28.9 °F48 %30.20 in10.0 miWNW (300°)9.2 mph20.7 mphPartly Cloudy
1:54 PM50.0 °F26.1 °F39 %30.20 in10.0 miWest (260°)5.8 mphScattered Clouds
2:54 PM53.1 °F28.0 °F38 %30.20 in10.0 miNW (310°)9.2 mphPartly Cloudy
3:54 PM53.1 °F25.0 °F34 %30.19 in10.0 miNW (310°)8.1 mphPartly Cloudy
4:54 PM54.0 °F28.0 °F37 %30.20 in10.0 miSSW (210°)5.8 mphPartly Cloudy
5:54 PM54.0 °F28.0 °F37 %30.19 in10.0 miWSW (250°)10.4 mphPartly Cloudy
6:54 PM51.1 °F30.0 °F44 %30.20 in10.0 miWSW (240°)9.2 mphClear
7:54 PM48.9 °F30.9 °F50 %30.22 in10.0 miSW (230°)4.6 mphClear
8:54 PM46.9 °F32.0 °F56 %30.24 in10.0 miWSW (240°)4.6 mphClear
9:54 PM42.1 °F34.0 °F73 %30.26 in10.0 miCalmClear
10:54 PM39.9 °F34.0 °F79 %30.27 in10.0 miCalmClear
11:54 PM37.9 °F35.1 °F89 %30.27 in10.0 miCalmClear
Hourly data recorded from KSUS, located miles away from Hazelwood, Missouri







STORIES FROM OUR PARTNERS